Wind_Speed
15 14 14 15 17 17 16 16 17 16 17 16 15 15 14 14 15 14 13 12 11 12 11 10 9 9 9 9 9 9 9 10 12 14 14 15 17 18 19 20 20 20
16 16 16 16 17 18 18 18 18 17 17 18 17 16 14 15 16 16 15 13 13 13 12 11 10 10 9 9 9 9 10 11 14 15 14 16 17 17 19 20 21 20
17 17 17 17 18 20 20 19 19 19 19 19 18 17 15 16 17 18 16 15 15 14 13 11 11 11 10 9 9 10 11 13 15 15 15 15 15 16 18 20 21 20
17 18 18 19 20 21 21 20 20 20 20 20 20 19 18 17 18 18 18 17 16 16 14 13 12 12 11 10 10 10 11 14 15 16 15 14 14 15 17 19 20 19
17 19 20 20 21 23 23 21 21 21 22 22 22 21 19 18 18 18 19 19 18 18 16 14 13 13 11 10 10 11 12 14 16 15 14 13 14 15 16 17 18 18
16 18 19 21 22 23 23 22 22 23 23 23 24 23 21 20 19 19 20 20 20 19 17 16 15 13 12 11 11 11 13 15 15 14 13 14 15 14 15 16 17 17
14 16 18 20 21 22 23 23 24 24 24 25 25 24 22 21 20 20 21 21 21 20 19 17 16 14 12 11 11 12 14 15 14 14 14 15 15 14 15 17 17 16
13 14 15 17 19 21 23 24 25 25 26 26 26 25 24 22 21 21 21 21 21 21 20 19 17 15 12 12 12 13 14 14 14 14 15 16 16 16 16 17 17 17
13 13 14 15 17 18 20 23 25 27 28 28 27 26 25 23 22 22 21 21 21 21 21 20 18 16 13 13 13 14 13 14 14 15 15 16 17 18 18 18 18 18
12 12 13 14 15 16 17 20 23 26 29 29 29 28 26 24 24 23 22 21 21 22 21 20 19 17 15 14 14 13 13 14 14 14 16 17 19 19 20 21 20 20
12 12 11 12 13 14 14 16 19 23 27 29 30 29 27 25 24 23 22 21 22 22 22 22 21 19 16 16 15 14 13 14 14 15 17 19 20 21 23 23 21 19
11 10 10 11 13 14 15 15 17 20 23 26 27 27 27 26 25 24 22 22 23 23 23 23 21 19 18 17 16 14 14 15 15 16 18 20 21 23 24 23 20 18
10 10 11 13 15 16 17 17 17 18 21 23 24 25 26 26 25 24 23 23 25 25 24 23 21 19 19 18 17 16 16 16 16 17 18 19 21 23 24 23 20 18
11 11 13 15 17 18 19 19 19 19 20 22 24 25 27 27 26 25 25 25 26 26 24 23 21 20 20 19 19 18 18 17 18 18 18 19 21 23 24 23 20 20
14 14 14 16 18 19 19 19 20 21 22 23 24 25 28 28 27 27 27 27 27 26 24 22 20 20 21 21 21 20 20 19 19 19 19 19 20 22 23 23 22 21
17 16 16 17 19 20 21 21 20 21 23 24 24 25 27 29 30 28 27 27 27 26 24 22 21 21 22 23 23 22 21 21 21 21 20 19 20 22 22 23 23 23
17 18 19 19 20 21 23 24 23 23 23 25 25 25 26 28 30 30 28 28 28 27 25 23 22 23 24 24 24 23 23 22 22 22 21 20 21 22 22 23 24 24
16 18 19 20 22 23 24 26 27 26 24 25 25 26 27 29 30 30 30 30 30 28 26 25 24 24 25 25 25 24 24 23 24 24 23 22 22 22 23 24 26 28
17 18 19 20 22 24 26 28 29 28 27 26 26 26 27 28 29 30 31 32 31 29 28 27 26 26 26 26 26 25 25 25 25 25 24 23 23 23 23 25 27 30
20 19 19 20 23 26 28 29 29 29 29 28 28 28 26 26 28 30 31 32 32 31 30 29 28 28 27 27 27 26 26 26 26 26 26 25 25 24 25 25 28 31
22 21 20 21 24 27 30 31 30 29 30 29 29 29 27 26 28 29 30 32 33 32 31 31 30 29 29 28 28 27 27 28 27 27 26 26 26 26 26 27 29 32
24 23 22 22 24 25 28 31 30 29 29 29 29 29 28 27 27 27 28 31 34 34 34 33 32 31 30 29 29 29 30 29 28 27 26 27 28 28 27 28 31 33
27 26 26 26 27 27 27 28 29 28 29 30 30 30 29 28 27 27 29 31 34 35 34 33 32 32 32 31 31 32 33 31 29 27 26 27 30 29 28 30 32 35
29 30 31 30 31 32 30 29 29 29 29 31 31 31 31 30 29 29 30 31 33 35 35 34 33 34 34 34 34 35 35 33 30 28 26 28 31 31 30 31 34 36
33 35 34 33 34 36 34 31 30 29 31 32 33 33 33 32 31 30 31 32 33 35 37 36 35 35 36 36 37 38 37 34 32 29 27 30 32 32 31 32 35 38
38 39 38 37 37 38 38 35 32 31 33 34 35 36 35 35 33 31 31 33 34 37 39 39 37 37 38 39 40 40 39 36 33 30 29 32 35 34 33 34 37 38
Wind_Direction
244 247 248 248 249 250 247 244 243 242 244 248 252 254 263 274 278 278 279 276 263 251 248 249 250 258 275 292 300 300 295 293 303 315 328 338 342 344 346 345 343 340
243 246 248 249 251 252 251 246 243 243 246 250 253 255 260 269 275 277 277 273 262 249 243 243 246 255 268 280 288 290 287 292 303 314 327 336 338 341 342 340 336 335
242 244 246 248 249 251 250 248 245 244 245 249 253 254 253 260 270 276 275 271 261 248 240 239 243 251 261 271 278 281 284 293 303 312 323 331 333 337 337 334 332 333
240 239 241 242 244 247 248 248 248 247 247 249 250 250 250 255 266 272 273 270 260 247 239 237 239 246 254 263 270 275 283 294 302 310 318 325 328 331 331 330 332 335
239 237 238 239 242 245 247 247 247 248 249 249 249 249 250 253 261 267 269 268 258 245 239 237 237 241 248 256 264 273 284 294 300 307 314 319 322 324 324 328 334 341
240 239 239 240 242 245 248 248 247 248 249 250 250 249 249 251 257 262 265 266 257 245 240 238 237 239 243 250 261 273 285 293 297 303 310 314 316 319 322 328 337 346
242 242 242 243 243 244 246 246 246 247 248 249 250 250 249 250 254 257 260 262 255 244 240 240 239 239 240 248 261 274 285 290 294 299 306 312 315 319 323 327 335 344
245 247 249 250 249 248 248 247 246 245 245 247 249 249 249 249 252 254 256 259 252 243 242 243 242 241 241 249 263 275 283 286 289 297 306 314 318 321 325 327 331 337
253 255 256 256 256 255 253 250 248 245 244 245 245 247 247 247 250 251 253 255 248 241 244 246 244 244 244 251 264 273 277 279 287 297 307 313 315 318 324 328 328 329
258 262 263 264 264 263 260 255 251 248 246 244 243 244 244 245 246 248 251 251 243 241 245 248 247 247 249 254 263 267 268 274 286 297 304 307 309 314 321 325 324 322
260 265 269 271 269 271 271 265 258 253 250 247 245 243 241 241 242 245 249 246 240 241 245 246 247 249 253 259 261 259 262 273 284 292 297 303 308 314 321 323 320 318
259 268 276 280 279 277 276 275 270 262 257 253 248 241 239 239 240 243 244 239 237 240 243 246 248 252 259 262 258 255 262 272 279 286 295 304 311 316 321 322 318 314
261 270 275 278 280 279 277 278 277 271 265 260 250 242 240 241 241 242 241 235 235 239 242 245 248 253 260 260 255 257 264 268 275 285 295 305 312 316 320 320 316 313
261 267 269 271 275 279 281 281 279 276 271 265 257 250 249 248 244 242 240 236 235 238 241 244 247 255 259 255 253 258 262 266 275 286 296 305 312 315 317 317 315 314
259 263 266 269 272 278 283 284 282 279 275 271 266 261 258 257 252 245 243 242 240 240 242 243 247 253 253 250 252 258 262 268 278 287 297 307 311 313 314 314 313 313
256 261 265 268 271 275 280 283 285 283 280 277 273 268 264 264 261 255 251 249 247 246 244 242 245 249 247 248 254 259 265 273 283 291 299 306 309 312 313 312 311 311
255 260 264 267 270 272 276 281 284 285 284 281 278 274 270 268 266 263 259 257 255 252 246 240 242 244 244 249 257 263 270 279 285 292 298 302 307 310 312 312 311 309
255 257 261 264 267 270 273 277 280 283 286 286 284 281 275 271 270 267 263 260 259 257 250 243 241 242 244 251 259 265 272 279 284 289 294 299 304 309 311 311 310 307
254 255 259 262 265 268 270 272 276 281 285 287 286 284 281 277 274 270 264 261 261 260 254 246 242 242 246 252 259 265 271 277 281 286 290 294 300 305 309 310 309 309
252 255 259 260 261 264 266 268 273 277 281 283 284 286 288 286 280 274 267 262 261 260 255 247 242 242 245 252 257 263 269 273 277 283 287 292 297 301 306 308 310 314
251 254 256 256 256 260 263 265 267 272 277 280 282 285 289 289 283 277 270 263 260 259 256 249 243 241 244 250 254 260 266 270 274 279 284 290 295 299 304 309 312 314
256 256 256 256 256 259 264 266 266 267 272 277 279 282 285 286 284 281 275 266 261 260 258 253 245 242 244 248 252 257 262 266 271 277 282 289 293 297 303 308 311 312
263 262 260 258 257 259 264 266 266 266 268 272 275 277 280 283 284 282 277 268 261 261 261 257 247 242 245 248 251 256 260 264 269 274 280 286 290 295 302 306 307 308
257 258 255 250 251 257 261 261 262 263 266 269 271 272 275 278 278 276 273 267 262 261 261 257 248 243 245 248 250 253 258 261 266 272 278 284 288 292 298 301 302 304
256 259 258 253 254 261 262 257 254 258 262 265 267 268 270 272 273 273 272 268 263 259 258 256 250 244 244 248 249 252 257 260 265 270 276 281 285 288 292 295 297 299
265 267 267 267 267 269 268 259 250 252 258 260 262 264 265 267 270 270 270 269 263 258 257 257 252 245 243 246 249 252 256 259 264 269 274 278 281 283 287 290 293 296
Height
5911 5912 5913 5914 5914 5914 5915 5916 5916 5917 5917 5918 5918 5918 5919 5919 5919 5919 5919 5919 5919 5919 5920 5920 5920 5920 5920 5920 5920 5920 5920 5920 5920 5919 5918 5917 5916 5914 5913 5912 5911 5910
5909 5910 5911 5912 5912 5913 5913 5914 5914 5915 5915 5916 5916 5916 5917 5917 5917 5917 5917 5917 5917 5918 5918 5919 5919 5919 5919 5919 5919 5919 5919 5919 5919 5918 5917 5916 5915 5914 5912 5911 5910 5909
5907 5908 5908 5909 5910 5911 5911 5912 5912 5913 5913 5913 5914 5914 5915 5915 5916 5916 5916 5915 5915 5916 5916 5917 5917 5917 5917 5918 5918 5918 5918 5918 5918 5918 5917 5916 5915 5913 5912 5911 5909 5908
5904 5905 5906 5906 5907 5908 5909 5910 5911 5911 5911 5912 5912 5912 5913 5913 5914 5914 5914 5914 5914 5914 5915 5915 5915 5915 5916 5916 5917 5917 5917 5917 5917 5917 5916 5915 5914 5913 5912 5910 5909 5907
5902 5902 5903 5904 5904 5905 5906 5908 5908 5909 5909 5909 5910 5910 5911 5911 5912 5913 5912 5912 5912 5912 5913 5913 5913 5914 5914 5915 5915 5916 5916 5916 5916 5915 5914 5913 5913 5912 5911 5910 5908 5906
5899 5900 5900 5901 5902 5903 5904 5905 5906 5906 5907 5907 5907 5908 5909 5909 5910 5910 5910 5910 5910 5911 5911 5911 5912 5912 5912 5913 5914 5914 5914 5914 5914 5913 5912 5912 5912 5911 5910 5909 5907 5905
5897 5897 5898 5898 5899 5900 5901 5902 5903 5903 5904 5904 5905 5906 5906 5907 5907 5908 5908 5908 5909 5909 5909 5910 5910 5910 5911 5911 5912 5913 5912 5912 5912 5911 5911 5910 5910 5909 5908 5906 5905 5904
5894 5895 5895 5896 5896 5897 5898 5899 5899 5900 5901 5901 5902 5903 5904 5904 5905 5905 5905 5906 5907 5907 5908 5908 5908 5909 5909 5909 5910 5910 5910 5910 5910 5909 5908 5908 5907 5906 5905 5904 5903 5902
5892 5893 5893 5894 5894 5895 5895 5896 5896 5897 5897 5898 5899 5900 5901 5902 5902 5902 5903 5904 5905 5906 5906 5907 5907 5907 5907 5907 5908 5908 5908 5908 5908 5907 5906 5905 5904 5904 5903 5902 5901 5899
5891 5891 5892 5892 5892 5892 5892 5893 5893 5893 5894 5895 5896 5897 5898 5899 5899 5899 5900 5901 5903 5904 5905 5905 5905 5906 5905 5906 5906 5906 5906 5906 5905 5904 5903 5903 5902 5901 5901 5900 5898 5897
5889 5889 5890 5890 5890 5890 5890 5890 5890 5890 5891 5892 5893 5894 5895 5896 5896 5897 5898 5899 5900 5901 5902 5903 5903 5904 5904 5904 5904 5904 5904 5904 5903 5902 5901 5901 5900 5899 5898 5897 5896 5894
5887 5887 5888 5888 5888 5888 5888 5888 5888 5888 5888 5889 5890 5891 5892 5893 5894 5895 5895 5897 5898 5899 5900 5901 5902 5902 5902 5902 5901 5901 5901 5901 5901 5900 5899 5898 5897 5896 5895 5894 5893 5891
5885 5885 5886 5886 5887 5887 5886 5886 5887 5887 5887 5887 5888 5889 5890 5891 5891 5892 5893 5894 5895 5896 5898 5899 5900 5900 5900 5900 5899 5899 5899 5899 5899 5898 5897 5896 5894 5893 5892 5891 5890 5889
5883 5883 5884 5884 5885 5885 5885 5885 5885 5885 5885 5885 5886 5887 5888 5889 5890 5890 5891 5892 5893 5894 5895 5896 5897 5898 5898 5898 5897 5897 5897 5897 5896 5896 5895 5893 5892 5891 5890 5889 5887 5886
5880 5881 5882 5882 5883 5883 5883 5883 5883 5883 5883 5883 5884 5885 5886 5886 5887 5888 5888 5889 5890 5891 5893 5894 5895 5896 5896 5895 5895 5895 5895 5895 5894 5893 5892 5891 5890 5888 5887 5886 5885 5884
5877 5878 5879 5880 5881 5881 5881 5881 5881 5881 5880 5881 5882 5883 5884 5884 5885 5886 5887 5887 5888 5889 5890 5891 5892 5893 5893 5892 5892 5892 5892 5892 5891 5890 5889 5888 5887 5886 5885 5884 5882 5881
5875 5876 5876 5877 5878 5879 5879 5879 5878 5878 5878 5878 5879 5880 5881 5881 5882 5883 5885 5885 5886 5886 5887 5888 5889 5889 5889 5889 5889 5889 5889 5889 5888 5887 5887 5886 5884 5884 5882 5881 5879 5878
5872 5873 5874 5875 5876 5876 5876 5876 5875 5876 5876 5876 5876 5877 5878 5879 5879 5881 5882 5882 5883 5883 5884 5885 5885 5885 5886 5886 5886 5886 5886 5886 5886 5885 5884 5883 5882 5881 5880 5879 5877 5874
5870 5871 5872 5872 5873 5873 5873 5873 5873 5873 5874 5874 5873 5874 5875 5876 5877 5877 5878 5879 5879 5880 5881 5881 5881 5882 5882 5883 5883 5883 5883 5883 5883 5883 5882 5881 5880 5879 5878 5876 5874 5872
5867 5868 5869 5870 5870 5870 5869 5870 5870 5870 5871 5871 5871 5871 5871 5873 5873 5874 5874 5875 5876 5877 5877 5878 5878 5879 5880 5880 5880 5880 5880 5880 5880 5880 5880 5879 5878 5877 5875 5874 5872 5870
5863 5865 5866 5866 5866 5866 5866 5866 5867 5868 5868 5868 5868 5868 5868 5869 5870 5870 5871 5872 5873 5874 5874 5874 5875 5876 5877 5877 5877 5877 5877 5877 5877 5878 5877 5877 5875 5874 5873 5872 5870 5868
5860 5861 5862 5862 5862 5862 5862 5863 5863 5864 5865 5864 5864 5865 5865 5866 5866 5867 5868 5869 5869 5870 5871 5871 5872 5873 5873 5874 5874 5874 5873 5873 5874 5875 5875 5874 5872 5871 5871 5870 5868 5866
5856 5857 5857 5858 5858 5858 5859 5859 5860 5861 5861 5861 5861 5861 5862 5862 5863 5863 5864 5865 5865 5866 5867 5868 5869 5870 5870 5870 5870 5869 5869 5869 5871 5871 5871 5871 5869 5869 5868 5867 5865 5863
5851 5851 5852 5853 5853 5854 5854 5855 5856 5857 5857 5857 5857 5858 5858 5859 5859 5859 5859 5860 5861 5862 5863 5864 5865 5866 5866 5866 5866 5865 5864 5865 5867 5867 5868 5867 5866 5865 5865 5864 5862 5860
5846 5846 5846 5847 5849 5849 5849 5849 5850 5851 5852 5852 5853 5853 5854 5854 5854 5854 5855 5856 5857 5858 5858 5859 5860 5861 5862 5861 5861 5860 5860 5861 5862 5863 5864 5863 5862 5861 5861 5860 5858 5856
5841 5841 5842 5843 5844 5844 5844 5844 5845 5846 5847 5847 5848 5849 5849 5849 5849 5850 5851 5851 5852 5853 5853 5853 5855 5856 5857 5857 5856 5855 5855 5857 5858 5859 5859 5859 5858 5857 5856 5855 5854 5853